Hourly Data Report for December 12, 2004

TORONTO CITY
ONTARIO

43°40'00.000" N
79°24'00.000" W
112.50 m
6158355
71508
XTO

Download Data

Hourly Data (December 2004)
Hourly Data Report for December 12, 2004
TIME
LST
Temp Definition
°C
Dew Point Definition
°C
Rel Hum Definition
%
Precip. Amount Definition
mm

Wind Dir Definition
10's deg

Wind Spd Definition
km/h
Visibility Definition
km
Stn Press Definition
kPa
Hmdx Definition


Wind Chill Definition


Weather Definition


00:00 -0.9 -1.9 93   LegendMM LegendMM LegendMM 98.85     LegendNANA
01:00 -0.8 -1.9 92   LegendMM LegendMM LegendMM 98.85     LegendNANA
02:00 -1.0 -2.0 93   LegendMM LegendMM LegendMM 98.89     LegendNANA
03:00 -0.7 -1.5 94   LegendMM LegendMM LegendMM 98.95     LegendNANA
04:00 -0.7 -1.8 92   LegendMM LegendMM LegendMM 98.97     LegendNANA
05:00 -0.7 -2.5 88   LegendMM LegendMM LegendMM 98.94     LegendNANA
06:00 -0.3 -3.0 82   LegendMM LegendMM LegendMM 98.95     LegendNANA
07:00 0.1 -3.2 78   LegendMM LegendMM LegendMM 98.99     LegendNANA
08:00 0.5 -2.2 82   LegendMM LegendMM LegendMM 98.96     LegendNANA
09:00 1.0 -2.4 78   LegendMM LegendMM LegendMM 98.95     LegendNANA
10:00 1.4 -2.2 77   LegendMM LegendMM LegendMM 98.94     LegendNANA
11:00 1.6 -1.6 79   LegendMM LegendMM LegendMM 98.88     LegendNANA
12:00 1.8 -1.7 78   LegendMM LegendMM LegendMM 98.74     LegendNANA
13:00 1.0 -0.5 90   LegendMM LegendMM LegendMM 98.62     LegendNANA
14:00 1.3 0.8 96   LegendMM LegendMM LegendMM 98.48     LegendNANA
15:00 2.1 1.5 96   LegendMM LegendMM LegendMM 98.37     LegendNANA
16:00 1.9 1.3 96   LegendMM LegendMM LegendMM 98.28     LegendNANA
17:00 2.0 1.4 96   LegendMM LegendMM LegendMM 98.22     LegendNANA
18:00 2.6 2.0 96   LegendMM LegendMM LegendMM 98.13     LegendNANA
19:00 3.1 2.3 94   LegendMM LegendMM LegendMM 98.03     LegendNANA
20:00 3.3 2.5 94   LegendMM LegendMM LegendMM 97.94     LegendNANA
21:00 3.5 2.6 94   LegendMM LegendMM LegendMM 97.89     LegendNANA
22:00 3.4 2.3 92   LegendMM LegendMM LegendMM 97.89     LegendNANA
23:00 3.6 2.2 91   LegendMM LegendMM LegendMM 97.87     LegendNANA

Notes on Data Quality.

Legend

  • E = Estimated
  • M = Missing
  • NA = Not Available*
  • [empty] = Indicates an unobserved value
Date modified: